Terminal Aerodrome Forecast
Issued by NWS Omaha/Valley, NE

Home | Current Version | Previous Version | Graphics & Text | Print | Product List | Glossary On
Versions: 1 2 3 4 5 6 7 8 9 10 11 12 13 14 15 16 17 18 19 20 21 22 23 24 25 26 27 28 29 30 31 32 33 34 35 36 37 38 39 40 41 42 43 44
000
FTUS43 KOAX 211126 AAA
TAFOFK
TAF AMD
KOFK 211126Z 2111/2212 01013KT P6SM VCSH SCT015 OVC080
      TEMPO 2112/2116 4SM -RASN OVC020
     FM211600 04013KT P6SM OVC020
     FM212000 05013G20KT P6SM OVC035
     FM220100 06011KT P6SM BKN090=

USA.gov is the U.S. government's official web portal to all federal, state and local government web resources and services.